Regional Weather Roundup
Issued by NWS

Home | Current Version | Previous Version | Graphics & Text | Print | Product List | Glossary On
Versions: 1 2 3 4 5 6 7 8 9 10 11 12 13 14 15 16 17 18 19 20 21 22 23 24 25 26 27 28 29 30 31 32 33 34 35 36 37 38 39 40 41 42 43 44 45 46 47 48 49 50
000
ASUS43 KMKX 060010
RWRWI

WISCONSIN REGIONAL WEATHER ROUNDUP
NATIONAL WEATHER SERVICE MILWAUKEE/SULLIVAN WI
600 PM CST THU MAR 05 2015

NOTE: "FAIR" INDICATES FEW OR NO CLOUDS BELOW 12,000 FEET WITH NO
SIGNIFICANT WEATHER AND/OR OBSTRUCTIONS TO VISIBILITY.

WIZ001-002-006>008-014>016-023>028-060100-
NORTHWEST WISCONSIN

CITY           SKY/WX    TMP DP  RH WIND       PRES   REMARKS
SUPERIOR ARPT  CLEAR     13  -4  46 SW12      30.33S WCI  -1
6HR MIN TEMP:   8; 6HR MAX TEMP:  16;

ASHLAND        CLEAR     11 -10  38 SW9       30.33S WCI  -2
6HR MIN TEMP:   7; 6HR MAX TEMP:  15;

HAYWARD        CLEAR     10 -10  40 SW9       30.33S WCI  -3
6HR MIN TEMP:   4; 6HR MAX TEMP:  11;

SIREN          CLEAR     11  -6  47 SW7       30.37S WCI   0
6HR MIN TEMP:   6; 6HR MAX TEMP:  13;

CUMBERLAND     CLEAR      7  -6  56 S10       30.35F WCI  -8
RICE LAKE      CLEAR      9  -5  53 S7        30.40S WCI  -2
6HR MIN TEMP:   4; 6HR MAX TEMP:  11;

CHETEK         CLEAR      9  -6  51 SW5       30.39S WCI   0
6HR MIN TEMP:   3; 6HR MAX TEMP:  10;

LADYSMITH      CLEAR      9 -10  41 SW7       30.38S WCI  -2
6HR MIN TEMP:   6; 6HR MAX TEMP:  12;

EAU CLAIRE     CLEAR      9  -7  48 SW9       30.42F WCI  -4
6HR MIN TEMP:   3; 6HR MAX TEMP:  10;

MENOMONIE      CLEAR     11  -4  51 S8        30.42F WCI  -1
6HR MIN TEMP:   8; 6HR MAX TEMP:  13;

NEW RICHMOND   CLEAR     11  -2  57 S8        30.39F WCI  -1
6HR MIN TEMP:   7; 6HR MAX TEMP:  14;

OSCEOLA        CLEAR     12  -2  52 SW6       30.41F WCI   3
6HR MIN TEMP:   8; 6HR MAX TEMP:  15;

$$

WIZ003>005-009-010-017-018-060100-
NORTH CENTRAL WISCONSIN

CITY           SKY/WX    TMP DP  RH WIND       PRES   REMARKS
MANITOWISH WTR CLEAR      9 -14  33 SW6       30.26S WCI  -1
6HR MIN TEMP:   5; 6HR MAX TEMP:  12;

ARBOR VITAE    CLEAR     11 -10  37 SW5       30.28R WCI   3
6HR MIN TEMP:   7; 6HR MAX TEMP:  14;

WOODRUFF       CLEAR     11 -10  37 SW5       30.28R WCI   3
6HR MIN TEMP:   7; 6HR MAX TEMP:  14;

RHINELANDER    CLEAR      8 -11  41 SW6       30.29S WCI  -2
6HR MIN TEMP:   7; 6HR MAX TEMP:  12;

EAGLE RIVER    CLEAR      8 -13  38 SW8       30.27R WCI  -5
6HR MIN TEMP:   7; 6HR MAX TEMP:  12;

LAND O LAKES   CLEAR     11 -13  33 SW5       30.26S WCI   2
6HR MIN TEMP:   9; 6HR MAX TEMP:  15;

PHILLIPS       CLEAR      7 -12  41 SW8       30.31S WCI  -5
6HR MIN TEMP:   5; 6HR MAX TEMP:  10;

TOMAHAWK       CLEAR      8 -15  34 CALM      30.32S
6HR MIN TEMP:   7; 6HR MAX TEMP:  13;

MEDFORD        CLEAR      5 -10  49 SW6       30.34S WCI  -6
6HR MIN TEMP:   3; 6HR MAX TEMP:   7;

MERRILL        CLEAR      6 -10  47 SW10      30.35S WCI  -8
6HR MIN TEMP:   6; 6HR MAX TEMP:  11;

$$

WIZ029-030-035-036-043>047-060100-
CENTRAL WISCONSIN

CITY           SKY/WX    TMP DP  RH WIND       PRES   REMARKS
WAUSAU         CLEAR      7  -8  50 W6        30.36S WCI  -3
6HR MIN TEMP:   4; 6HR MAX TEMP:   9;

MOSINEE        CLEAR      9  -8  47 W7        30.38S WCI  -3
MARSHFIELD     CLEAR      9  -9  44 W6        30.38S WCI  -1
6HR MIN TEMP:   4; 6HR MAX TEMP:  11;

STEVENS POINT  CLEAR      8  -8  46 CALM      30.40S
6HR MIN TEMP:   5; 6HR MAX TEMP:  10;

WAUPACA        CLEAR     14  -6  40 W3        30.43R
6HR MIN TEMP:  13; 6HR MAX TEMP:  18;

WAUTOMA        CLEAR     12  -7  42 W7        30.44R WCI   1
6HR MIN TEMP:  11; 6HR MAX TEMP:  16;

WISC RAPIDS    CLEAR     12  -8  40 W7        30.42S WCI   1
6HR MIN TEMP:   8; 6HR MAX TEMP:  15;

CAMP DOUGLAS   CLEAR     10  -4  52 W7        30.43S WCI   0
$$

WIZ011>013-019>022-031-037>040-048>050-060100-
NORTHEAST WISCONSIN

CITY           SKY/WX    TMP DP  RH WIND       PRES   REMARKS
ANTIGO         CLEAR      4  -8  56 W10       30.33R WCI -11
6HR MIN TEMP:   4; 6HR MAX TEMP:   9;

SHAWANO        CLEAR     13  -7  41 W8        30.41S WCI   2
6HR MIN TEMP:  12; 6HR MAX TEMP:  17;

OCONTO         CLEAR     12  -6  43 SW9       30.41R WCI   0
6HR MIN TEMP:  11; 6HR MAX TEMP:  16;

STURGEON BAY   CLEAR     10  -6  48 SW9       30.41S WCI  -2
6HR MIN TEMP:   9; 6HR MAX TEMP:  12;

GREEN BAY      CLEAR     11  -5  48 W8        30.43R WCI  -1
6HR MIN TEMP:  10; 6HR MAX TEMP:  14;

MANITOWOC      CLEAR     11  -3  53 W7        30.45R WCI   0
6HR MIN TEMP:  11; 6HR MAX TEMP:  16;

APPLETON       CLEAR     12  -6  44 W9        30.41S WCI   0
CLINTONVILLE   CLEAR     12  -8  40 W7        30.41S WCI   2
OSHKOSH        CLEAR     13  -4  46 SW3       30.43R
6HR MIN TEMP:  11; 6HR MAX TEMP:  16;

$$

WIZ032>034-041-042-053>061-060100-
SOUTHWEST WISCONSIN

CITY           SKY/WX    TMP DP  RH WIND       PRES   REMARKS
LA CROSSE      CLEAR      9  -2  61 NW6       30.47S WCI  -1
6HR MIN TEMP:   9; 6HR MAX TEMP:  16; 6HR PCP: TRACE;

SPARTA         CLEAR     12  -5  46 W3        30.46S
6HR MIN TEMP:  10; 6HR MAX TEMP:  15;

VIROQUA        CLEAR      8  -4  58 SW7       30.42S WCI  -3
6HR MIN TEMP:   8; 6HR MAX TEMP:  12;

BOSCOBEL       CLEAR     11  -4  51 SW9       30.51R WCI  -2
6HR MIN TEMP:  11; 6HR MAX TEMP:  16; 6HR PCP: TRACE;

PRAIRIE DU CHI CLEAR     10  -5  52 SW6       30.52R WCI   0
6HR MIN TEMP:  10; 6HR MAX TEMP:  12;

PLATTEVILLE    CLEAR      8  -4  57 SW6       30.47F WCI  -2
6HR MIN TEMP:   8; 6HR MAX TEMP:  12;

$$

WIZ056-057-062-063-064-067-068-060100-
SOUTH CENTRAL WISCONSIN

CITY           SKY/WX    TMP DP  RH WIND       PRES   REMARKS
REEDSBURG      CLEAR     12  -4  48 SW5       30.45S WCI   4
6HR MIN TEMP:   9; 6HR MAX TEMP:  15;

BARABOO/DELLS  CLEAR     11  -6  45 CALM      30.44S
6HR MIN TEMP:   9; 6HR MAX TEMP:  15;

LONE ROCK      CLEAR     13  -6  42 W7        30.48S WCI   3
6HR MIN TEMP:  10; 6HR MAX TEMP:  15;

MINERAL POINT  CLEAR     10  -6  48 SW6       30.46R WCI   1
MADISON        CLEAR     13  -4  46 SW6       30.47R WCI   4
6HR MIN TEMP:  10; 6HR MAX TEMP:  16;

MIDDLETON      CLEAR     13  -5  43 SW9       30.46R WCI   1
6HR MIN TEMP:  13; 6HR MAX TEMP:  18;

WATERTOWN      CLEAR     11  -3  51 SW3       30.46S
6HR MIN TEMP:  11; 6HR MAX TEMP:  15;

MONROE         CLEAR      9  -2  61 W9        30.46S WCI  -5
JANESVILLE     CLEAR     10  -4  52 W8        30.50R WCI  -1
$$

WIZ051-052-058>065-066-070>072-060100-
SOUTHEAST WISCONSIN

CITY           SKY/WX    TMP DP  RH WIND       PRES   REMARKS
MILWAUKEE      CLEAR     14  -6  40 W7        30.49R WCI   4
6HR MIN TEMP:  12; 6HR MAX TEMP:  16;

WAUKESHA       CLEAR     10  -6  48 SW7       30.47R WCI   0
MILWAUKEE/TIMM NOT AVBL
RACINE         CLEAR     12  -6  44 W7        30.51R WCI   1
6HR MIN TEMP:  12; 6HR MAX TEMP:  15;

BURLINGTON     CLEAR      6  -7  56 SW6       30.49R WCI  -5
6HR MIN TEMP:   5; 6HR MAX TEMP:  13;

KENOSHA        CLEAR      7  -6  55 W7        30.49R WCI  -5
6HR MIN TEMP:   7; 6HR MAX TEMP:  13;

FOND DU LAC    CLEAR     13  -4  46 SW6       30.44R WCI   4
6HR MIN TEMP:  10; 6HR MAX TEMP:  15;

SHEBOYGAN      CLEAR      9  -4  55 SW8       30.45R WCI  -3
6HR MIN TEMP:   9; 6HR MAX TEMP:  14;

WEST BEND      CLEAR     12  -4  48 SW6       30.45R WCI   3
JUNEAU         CLEAR     10  -2  58 SW7       30.46R WCI  -1
6HR MIN TEMP:  10; 6HR MAX TEMP:  15;

$$

LSZ147-162-060100-
LAKE SUPERIOR

STATION/POSITION TIME  TEMP    WIND        PRES    WAVE
                       AIR SEA DIR/SP/G            HT/PER
                 (UTC) (F)     (DEG/KT/KT) (MB)    (FT/S)
DEVILS ISLAND    0000   13     210/ 10/ 14 1027.6F
PORT WING        2340   15     210/ 10/ 15 1026.8F
SAXON HARBOR     2300   17     220/  8/ 14 1027.1F
$$

LMZ867-665-643>646-060100-
LAKE MICHIGAN

STATION/POSITION TIME  TEMP    WIND        PRES    WAVE
                       AIR SEA DIR/SP/G            HT/PER


USA.gov is the U.S. government's official web portal to all federal, state and local government web resources and services.